Погода в Урмии

Иран     37°32′46″N   45°03′20″E
темп.,
°C
ветер,
м/с
пор.,
м/с
влажн.,
%
обл.,
%
осадки,
мм/ч
давл.,
гПа
погр.,
м
6 мая, чт
чт601:30+11всв228230 0.4 101219
04:30+10юз1189100 0.5 101210
07:30+11ююз007984 0.0 101377
10:30+14всв226247 0.1 1012841
13:30+18св335172 1.1 10101171
16:30+16з355871 2.3 1010752
19:30+14з2364100 1.1 1010181
22:30+13с2273100 1.1 101111
7 мая, пт
пт701:30+12сз2278100 0.8 101289
04:30+10зюз0183100 0.9 101110
07:30+11юз11785 0.1 101119
10:30+15всв216285 0.7 1011638
13:30+17в225355 3.1 1009869
16:30+12ссз4782100 14.9 1012649
19:30+13ссз1173100 0.6 1013141
22:30+11с2281100 1.1 1016102
8 мая, сб
сб801:30+11зсз2280100 0.0 101687
04:30+11ссв128369 0.1 101654
07:30+11с118456 0.3 1018106
10:30+14св236637 0.6 10171045
13:30+17св325236 0.1 10161522
16:30+19всв32480 0.1 10141551
19:30+17в23570 0.0 1014112
22:30+13зюз116694 0.3 101511
9 мая, вс
вс901:30+12юз22680 0.0 101410
04:30+12ююз11701 0.0 101411
07:30+13юз116998 0.0 101411
10:30+18вюв115029 0.0 1013744
13:30+23вюв24345 0.0 10102115
16:30+24ю25315 0.0 10071880
19:30+21ююз235178 0.0 100755
22:30+15з2261100 0.0 101016
10 мая, пн
пн1001:30+14зюз2259100 0.0 100914
04:30+13юз22550 0.0 100915
07:30+14зюз11580 0.0 100915
10:30+21з17305 0.0 10081728
13:30+23ссз16270 0.0 10071832
16:30+23зюз610250 0.0 10072492
19:30+20с22450 0.0 100847
22:30+12с11651 0.0 101217